Back to catalog

PEGASUS DEB

AlivePO
NORAD 24973·DEBRIS·🇺🇸 United States

Launched May 19, 1994 from Vandenberg Space Force Base

Loading…

Next Passes (next 24 hours)

TLE

FreshSource: Space-Track

Epoch: Sep 13, 2026, 12:35 UTC

1 24973U 94029ACF 26256.52486437  .00001537  00000-0  31586-3 0  9991
2 24973  82.0158 323.2312 0292441 240.3294 186.0243 14.36578891561528

Track PEGASUS DEB in real time with AllMySat

Download on the App Store